Time,TemperatureF,DewpointF,PressureIn,WindDirection,WindDirectionDegrees,WindSpeedMPH,WindSpeedGustMPH,Humidity,HourlyPrecipIn,Conditions,Clouds,dailyrainin,SoftwareType,DateUTC
2013-02-14 00:00:00,52.6,46.0,30.03,NNE,26,0.0,1.0,77,0.00,,,0.00,weatherlink.com 1.10,2013-02-14 07:00:00,
2013-02-14 00:15:00,52.2,46.0,30.03,NNE,26,0.0,1.0,79,0.00,,,0.00,weatherlink.com 1.10,2013-02-14 07:15:00,
2013-02-14 00:30:00,51.6,45.0,30.03,NNE,26,0.0,1.0,79,0.00,,,0.00,weatherlink.com 1.10,2013-02-14 07:30:00,
2013-02-14 00:45:00,51.5,45.0,30.03,NE,34,0.0,4.0,79,0.00,,,0.00,weatherlink.com 1.10,2013-02-14 07:45:00,
2013-02-14 01:00:00,51.7,45.0,30.02,NNW,345,0.0,2.0,78,0.00,,,0.00,weatherlink.com 1.10,2013-02-14 08:00:00,
2013-02-14 01:15:00,51.6,45.0,30.02,NNW,346,0.0,1.0,79,0.00,,,0.00,weatherlink.com 1.10,2013-02-14 08:15:00,
2013-02-14 01:30:00,51.6,45.0,30.02,NNW,345,0.0,0.0,79,0.00,,,0.00,weatherlink.com 1.10,2013-02-14 08:30:00,
2013-02-14 01:45:00,51.6,45.0,30.01,NNW,345,0.0,1.0,79,0.00,,,0.00,weatherlink.com 1.10,2013-02-14 08:45:00,
2013-02-14 02:00:00,55.4,45.0,30.01,NW,309,1.0,6.0,69,0.00,,,0.00,weatherlink.com 1.10,2013-02-14 09:00:00,
2013-02-14 02:15:00,56.6,45.0,30.00,NW,308,0.0,2.0,66,0.00,,,0.00,weatherlink.com 1.10,2013-02-14 09:15:00,
2013-02-14 02:30:00,55.1,45.0,30.00,NW,308,0.0,1.0,69,0.00,,,0.00,weatherlink.com 1.10,2013-02-14 09:30:00,
2013-02-14 02:45:00,53.6,45.0,29.99,NW,308,0.0,1.0,72,0.00,,,0.00,weatherlink.com 1.10,2013-02-14 09:45:00,
2013-02-14 03:00:00,51.9,44.0,29.99,NW,308,0.0,1.0,74,0.00,,,0.00,weatherlink.com 1.10,2013-02-14 10:00:00,
2013-02-14 03:15:00,50.9,44.0,29.99,NW,308,0.0,1.0,76,0.00,,,0.00,weatherlink.com 1.10,2013-02-14 10:15:00,
2013-02-14 03:30:00,50.1,43.0,29.99,NW,308,1.0,2.0,77,0.00,,,0.00,weatherlink.com 1.10,2013-02-14 10:30:00,
2013-02-14 03:46:00,49.6,43.0,30.00,NW,308,0.0,1.0,78,0.00,,,0.00,weatherlink.com 1.10,2013-02-14 10:46:00,
2013-02-14 04:01:00,49.0,43.0,30.00,NW,308,0.0,1.0,79,0.00,,,0.00,weatherlink.com 1.10,2013-02-14 11:01:00,
2013-02-14 04:15:00,48.3,42.0,30.00,NW,308,0.0,0.0,80,0.00,,,0.00,weatherlink.com 1.10,2013-02-14 11:15:00,
2013-02-14 04:31:00,47.3,42.0,30.00,NNE,27,2.0,4.0,81,0.00,,,0.00,weatherlink.com 1.10,2013-02-14 11:31:00,
2013-02-14 04:46:00,47.0,41.0,30.00,NNE,17,0.0,2.0,81,0.00,,,0.00,weatherlink.com 1.10,2013-02-14 11:46:00,
2013-02-14 05:01:00,47.0,41.0,30.00,NE,36,0.0,4.0,80,0.00,,,0.00,weatherlink.com 1.10,2013-02-14 12:01:00,
2013-02-14 05:16:00,47.0,41.0,30.01,NNE,32,0.0,2.0,80,0.00,,,0.00,weatherlink.com 1.10,2013-02-14 12:16:00,
2013-02-14 05:31:00,47.1,41.0,30.02,NNE,31,0.0,2.0,80,0.00,,,0.00,weatherlink.com 1.10,2013-02-14 12:31:00,
2013-02-14 05:46:00,46.5,41.0,30.02,NNE,30,0.0,1.0,80,0.00,,,0.00,weatherlink.com 1.10,2013-02-14 12:46:00,
2013-02-14 06:01:00,46.2,40.0,30.03,NNW,342,0.0,2.0,80,0.00,,,0.00,weatherlink.com 1.10,2013-02-14 13:01:00,
2013-02-14 06:16:00,45.9,40.0,30.03,NNW,342,0.0,0.0,80,0.00,,,0.00,weatherlink.com 1.10,2013-02-14 13:16:00,
2013-02-14 06:31:00,45.8,40.0,30.03,NNW,342,0.0,1.0,80,0.00,,,0.00,weatherlink.com 1.10,2013-02-14 13:31:00,
2013-02-14 06:46:00,45.9,40.0,30.04,NNW,342,0.0,1.0,79,0.00,,,0.00,weatherlink.com 1.10,2013-02-14 13:46:00,
2013-02-14 07:01:00,45.7,40.0,30.04,NNW,342,0.0,1.0,79,0.00,,,0.00,weatherlink.com 1.10,2013-02-14 14:01:00,
2013-02-14 07:16:00,46.2,40.0,30.04,NNE,21,0.0,3.0,79,0.00,,,0.00,weatherlink.com 1.10,2013-02-14 14:16:00,
2013-02-14 07:31:00,47.3,41.0,30.04,North,5,0.0,3.0,79,0.00,,,0.00,weatherlink.com 1.10,2013-02-14 14:31:00,
2013-02-14 07:46:00,48.6,41.0,30.05,NNE,32,0.0,4.0,75,0.00,,,0.00,weatherlink.com 1.10,2013-02-14 14:46:00,
2013-02-14 08:01:00,50.0,42.0,30.05,NE,34,0.0,2.0,73,0.00,,,0.00,weatherlink.com 1.10,2013-02-14 15:01:00,
2013-02-14 08:16:00,50.8,42.0,30.05,North,355,0.0,3.0,71,0.00,,,0.00,weatherlink.com 1.10,2013-02-14 15:16:00,
2013-02-14 08:31:00,53.3,42.0,30.05,North,9,0.0,4.0,66,0.00,,,0.00,weatherlink.com 1.10,2013-02-14 15:31:00,
2013-02-14 08:46:00,56.5,44.0,30.05,North,5,0.0,4.0,63,0.00,,,0.00,weatherlink.com 1.10,2013-02-14 15:46:00,
2013-02-14 09:01:00,60.6,46.0,30.05,North,11,0.0,5.0,58,0.00,,,0.00,weatherlink.com 1.10,2013-02-14 16:01:00,
2013-02-14 09:16:00,63.4,45.0,30.04,NW,315,0.0,9.0,52,0.00,,,0.00,weatherlink.com 1.10,2013-02-14 16:16:00,
2013-02-14 09:34:00,65.4,44.0,30.04,NNW,348,1.0,10.0,47,0.00,,,0.00,weatherlink.com 1.10,2013-02-14 16:34:00,
2013-02-14 09:46:00,66.8,44.0,30.04,NW,323,4.0,14.0,44,0.00,,,0.00,weatherlink.com 1.10,2013-02-14 16:46:00,
2013-02-14 10:01:00,68.1,43.0,30.04,NNW,336,3.0,7.0,41,0.00,,,0.00,weatherlink.com 1.10,2013-02-14 17:01:00,
2013-02-14 10:17:00,69.6,43.0,30.04,NNW,336,6.0,10.0,39,0.00,,,0.00,weatherlink.com 1.10,2013-02-14 17:17:00,
2013-02-14 10:31:00,70.7,43.0,30.03,NW,324,2.0,10.0,37,0.00,,,0.00,weatherlink.com 1.10,2013-02-14 17:31:00,
2013-02-14 10:47:00,72.1,43.0,30.03,NW,310,1.0,11.0,35,0.00,,,0.00,weatherlink.com 1.10,2013-02-14 17:47:00,
2013-02-14 11:02:00,73.3,43.0,30.03,NW,319,1.0,11.0,34,0.00,,,0.00,weatherlink.com 1.10,2013-02-14 18:02:00,
2013-02-14 11:17:00,74.2,45.0,30.02,North,360,0.0,8.0,36,0.00,,,0.00,weatherlink.com 1.10,2013-02-14 18:17:00,
2013-02-14 11:32:00,75.2,45.0,30.01,NNW,344,0.0,11.0,34,0.00,,,0.00,weatherlink.com 1.10,2013-02-14 18:32:00,
2013-02-14 11:47:00,76.6,46.0,30.00,NW,326,5.0,7.0,34,0.00,,,0.00,weatherlink.com 1.10,2013-02-14 18:47:00,
2013-02-14 12:02:00,77.1,43.0,30.00,ENE,66,2.0,7.0,30,0.00,,,0.00,weatherlink.com 1.10,2013-02-14 19:02:00,
2013-02-14 12:17:00,78.2,43.0,29.99,NNW,327,0.0,10.0,29,0.00,,,0.00,weatherlink.com 1.10,2013-02-14 19:17:00,
2013-02-14 12:32:00,78.4,44.0,29.99,NNE,15,3.0,10.0,29,0.00,,,0.00,weatherlink.com 1.10,2013-02-14 19:32:00,
2013-02-14 12:47:00,79.4,44.0,29.98,North,360,0.0,4.0,28,0.00,,,0.00,weatherlink.com 1.10,2013-02-14 19:47:00,
2013-02-14 13:02:00,80.5,44.0,29.98,ESE,103,0.0,7.0,28,0.00,,,0.00,weatherlink.com 1.10,2013-02-14 20:02:00,
2013-02-14 13:17:00,77.3,56.0,29.98,SSW,195,6.0,14.0,48,0.00,,,0.00,weatherlink.com 1.10,2013-02-14 20:17:00,
2013-02-14 13:32:00,75.5,57.0,29.98,SSE,155,2.0,10.0,52,0.00,,,0.00,weatherlink.com 1.10,2013-02-14 20:32:00,
2013-02-14 13:47:00,76.0,56.0,29.97,SE,144,8.0,11.0,50,0.00,,,0.00,weatherlink.com 1.10,2013-02-14 20:47:00,
2013-02-14 14:02:00,75.6,56.0,29.97,SE,136,7.0,13.0,50,0.00,,,0.00,weatherlink.com 1.10,2013-02-14 21:02:00,
2013-02-14 14:17:00,75.2,55.0,29.96,South,186,3.0,12.0,49,0.00,,,0.00,weatherlink.com 1.10,2013-02-14 21:17:00,
2013-02-14 14:32:00,74.3,55.0,29.96,SSE,163,6.0,12.0,52,0.00,,,0.00,weatherlink.com 1.10,2013-02-14 21:32:00,
2013-02-14 14:47:00,73.6,56.0,29.96,SSW,198,7.0,11.0,54,0.00,,,0.00,weatherlink.com 1.10,2013-02-14 21:47:00,
2013-02-14 15:02:00,73.4,56.0,29.95,South,175,2.0,10.0,55,0.00,,,0.00,weatherlink.com 1.10,2013-02-14 22:02:00,
2013-02-14 15:17:00,73.5,56.0,29.95,SE,142,1.0,10.0,54,0.00,,,0.00,weatherlink.com 1.10,2013-02-14 22:17:00,
2013-02-14 15:33:00,73.7,55.0,29.95,SSE,167,6.0,12.0,53,0.00,,,0.00,weatherlink.com 1.10,2013-02-14 22:33:00,
2013-02-14 15:48:00,73.2,55.0,29.95,South,177,1.0,9.0,53,0.00,,,0.00,weatherlink.com 1.10,2013-02-14 22:48:00,
2013-02-14 16:17:00,72.2,52.0,29.95,SSW,193,6.0,11.0,50,0.00,,,0.00,weatherlink.com 1.10,2013-02-14 23:17:00,
2013-02-14 16:32:00,71.3,53.0,29.95,SSW,195,9.0,14.0,53,0.00,,,0.00,weatherlink.com 1.10,2013-02-14 23:32:00,
2013-02-14 16:48:00,70.8,54.0,29.95,SE,142,3.0,9.0,56,0.00,,,0.00,weatherlink.com 1.10,2013-02-14 23:48:00,
2013-02-14 17:02:00,70.7,55.0,29.95,SSE,159,2.0,8.0,57,0.00,,,0.00,weatherlink.com 1.10,2013-02-15 00:02:00,
2013-02-14 17:18:00,70.7,55.0,29.95,ESE,123,0.0,8.0,57,0.00,,,0.00,weatherlink.com 1.10,2013-02-15 00:18:00,
2013-02-14 17:32:00,70.4,54.0,29.95,South,186,4.0,8.0,56,0.00,,,0.00,weatherlink.com 1.10,2013-02-15 00:32:00,
2013-02-14 17:48:00,69.5,53.0,29.95,South,173,3.0,6.0,57,0.00,,,0.00,weatherlink.com 1.10,2013-02-15 00:48:00,
2013-02-14 18:02:00,68.2,53.0,29.95,South,175,0.0,8.0,58,0.00,,,0.00,weatherlink.com 1.10,2013-02-15 01:02:00,
2013-02-14 18:17:00,67.3,53.0,29.96,South,175,0.0,4.0,60,0.00,,,0.00,weatherlink.com 1.10,2013-02-15 01:17:00,
2013-02-14 18:32:00,66.5,53.0,29.95,South,175,0.0,0.0,62,0.00,,,0.00,weatherlink.com 1.10,2013-02-15 01:32:00,
2013-02-14 18:47:00,65.6,53.0,29.96,South,175,0.0,1.0,63,0.00,,,0.00,weatherlink.com 1.10,2013-02-15 01:47:00,
2013-02-14 19:02:00,64.6,52.0,29.97,South,175,0.0,1.0,64,0.00,,,0.00,weatherlink.com 1.10,2013-02-15 02:02:00,
2013-02-14 19:17:00,63.5,52.0,29.98,South,174,0.0,1.0,67,0.00,,,0.00,weatherlink.com 1.10,2013-02-15 02:17:00,
2013-02-14 19:33:00,62.7,52.0,29.98,South,176,0.0,3.0,69,0.00,,,0.00,weatherlink.com 1.10,2013-02-15 02:33:00,
2013-02-14 19:48:00,63.2,54.0,29.99,NNW,331,1.0,5.0,71,0.00,,,0.00,weatherlink.com 1.10,2013-02-15 02:48:00,
2013-02-14 20:02:00,64.2,54.0,29.99,NW,323,1.0,5.0,70,0.00,,,0.00,weatherlink.com 1.10,2013-02-15 03:02:00,
2013-02-14 20:17:00,64.2,55.0,29.99,NW,326,0.0,5.0,71,0.00,,,0.00,weatherlink.com 1.10,2013-02-15 03:17:00,
2013-02-14 20:32:00,64.0,55.0,30.00,NNW,336,1.0,5.0,72,0.00,,,0.00,weatherlink.com 1.10,2013-02-15 03:32:00,
2013-02-14 20:47:00,63.9,55.0,30.00,NW,323,4.0,7.0,73,0.00,,,0.00,weatherlink.com 1.10,2013-02-15 03:47:00,
2013-02-14 21:02:00,63.8,55.0,30.01,NW,313,2.0,5.0,73,0.00,,,0.00,weatherlink.com 1.10,2013-02-15 04:02:00,
2013-02-14 21:17:00,63.6,55.0,30.01,NNW,328,0.0,5.0,74,0.00,,,0.00,weatherlink.com 1.10,2013-02-15 04:17:00,
2013-02-14 21:33:00,62.3,54.0,30.01,NNW,329,0.0,1.0,75,0.00,,,0.00,weatherlink.com 1.10,2013-02-15 04:33:00,
2013-02-14 21:48:00,61.2,54.0,30.02,NNE,14,0.0,3.0,77,0.00,,,0.00,weatherlink.com 1.10,2013-02-15 04:48:00,
2013-02-14 22:02:00,60.6,54.0,30.02,North,9,0.0,1.0,78,0.00,,,0.00,weatherlink.com 1.10,2013-02-15 05:02:00,
2013-02-14 22:18:00,59.9,54.0,30.02,North,5,0.0,2.0,80,0.00,,,0.00,weatherlink.com 1.10,2013-02-15 05:18:00,
2013-02-14 22:33:00,59.2,53.0,30.02,NNW,329,0.0,3.0,81,0.00,,,0.00,weatherlink.com 1.10,2013-02-15 05:33:00,
2013-02-14 22:48:00,58.5,53.0,30.02,NNW,329,0.0,1.0,82,0.00,,,0.00,weatherlink.com 1.10,2013-02-15 05:48:00,
2013-02-14 23:03:00,58.0,53.0,30.03,NNW,329,0.0,0.0,83,0.00,,,0.00,weatherlink.com 1.10,2013-02-15 06:03:00,
2013-02-14 23:18:00,57.4,52.0,30.02,NNW,329,0.0,0.0,83,0.00,,,0.00,weatherlink.com 1.10,2013-02-15 06:18:00,
2013-02-14 23:33:00,56.9,52.0,30.02,NNW,329,0.0,1.0,84,0.00,,,0.00,weatherlink.com 1.10,2013-02-15 06:33:00,
2013-02-14 23:48:00,56.7,52.0,30.02,NNW,329,0.0,1.0,85,0.00,,,0.00,weatherlink.com 1.10,2013-02-15 06:48:00,